Hourly Data Report for November 09, 2019

OTTAWA INTL A
ONTARIO
Current Station Operator: NAVCAN

45°19'00.000" N
75°40'00.000" W
114.90 m
6106001
71628
YOW

Download Data

Hourly Data (November 2019)
Hourly Data Report for November 9, 2019
TIME Temp Definition
°C
Dew Point Definition
°C
Rel Hum Definition
%
Wind Dir Definition
10's deg

Wind Spd Definition
km/h
Visibility Definition
km
Stn Press Definition
kPa
Hmdx Definition


Wind Chill Definition


Weather Definition


00:00 -6.7 -8.8 85 22 8 24.1 101.03   -11 LegendNANA
01:00 -8.2 -9.9 87 24 5 24.1 101.01   -11 Clear
02:00 -8.5 -9.9 89 21 3 24.1 101.01   -10 LegendNANA
03:00 -9.5 -10.4 93 18 8 24.1 100.95   -14 LegendNANA
04:00 -8.4 -9.7 90 20 5 24.1 100.92   -11 Mainly Clear
05:00 -8.7 -10.0 91 16 5 24.1 100.86   -11 LegendNANA
06:00 -8.9 -10.4 89 16 7 24.1 100.85   -13 LegendNANA
07:00 -7.6 -8.9 90 16 9 24.1 100.80   -12 Mostly Cloudy
08:00 -5.4 -7.0 88 17 14 24.1 100.78   -11 LegendNANA
09:00 -3.6 -5.6 87 17 14 24.1 100.73   -9 LegendNANA
10:00 -2.0 -4.7 82 19 16 24.1 100.64   -7 Mostly Cloudy
11:00 -1.2 -4.0 81 20 20 24.1 100.57   -7 LegendNANA
12:00 -0.7 -3.1 84 19 20 24.1 100.45   -6 LegendNANA
13:00 -0.4 -2.8 84 17 22 16.1 100.32   -6 Snow
14:00 -1.0 -3.0 87 17 17 16.1 100.26   -6 Snow
15:00 -0.4 -2.3 87 17 17 16.1 100.17   -5 Snow
16:00 -0.2 -1.4 92 18 17 16.1 100.16   -5 Snow
17:00 -0.1 -1.9 87 19 15 9.7 100.15   -5 Snow
18:00 0.4 -3.3 76 18 16 12.9 100.15     Snow
19:00 0.6 -4.0 71 19 15 24.1 100.10     Cloudy
20:00 0.7 -4.4 69 19 16 24.1 100.04     Snow
21:00 0.6 -4.1 71 18 14 24.1 99.97     LegendNANA
22:00 0.9 -3.9 70 19 18 24.1 99.94     Cloudy
23:00 1.0 -3.6 71 19 16 24.1 99.91     LegendNANA

Notes on Data Quality.

Legend

  • E = Estimated
  • M = Missing
  • NA = Not Available*
  • [empty] = Indicates an unobserved value
Date modified: